Regional Weather Roundup
Issued by NWS Grand Forks, ND

Home | Current Version | Previous Version | Text Only | Print | Product List | Glossary Off
Versions: 1 2 3 4 5 6 7 8 9 10 11 12 13 14 15 16 17 18 19 20 21 22 23 24 25 26 27 28 29 30 31 32 33 34 35 36 37 38 39 40 41 42 43 44 45 46 47 48 49 50

000
ASUS43 KFGF 221831
RWRFGF
PRAIRIE TO PINES  WEATHER ROUNDUP
NATIONAL WEATHER SERVICE EASTERN NORTH DAKOTA/GRAND FORKS ND
100 PM CDT TUE JUL 22 2014

 **SATELLITE DATA USED TO AUGMENT SKY COVER AT AUTOMATED STATIONS**
 *****  WEATHER ACROSS EASTERN NORTH DAKOTA  *****

CITY           SKY/WX    TMP DP  RH WIND       PRES   REMARKS
GRAND FORKS    SUNNY     74  57  55 N10       30.14R
6HR MIN TEMP:  62; 6HR MAX TEMP:  74;

GRAND FRKS AFB SUNNY     74  57  55 NW12      30.16R
GRAND FRKS NWS   N/A     75 N/A N/A N7          N/A
DEVILS LAKE    SUNNY     73  55  53 N7        30.17S
6HR MIN TEMP:  61; 6HR MAX TEMP:  72;

FARGO          SUNNY     77  59  53 N17       30.13R
WAHPETON ARPT  MOCLDY    73  52  46 N12G21    30.13S
$$

 ***** WEATHER ACROSS CENTRAL AND WESTERN NORTH DAKOTA  *****

CITY           SKY/WX    TMP DP  RH WIND       PRES   REMARKS
BISMARCK       SUNNY     76  62  62 VRB5      30.20S
6HR MIN TEMP:  65; 6HR MAX TEMP:  76;

MINOT          SUNNY     75  60  59 VRB7      30.19S
6HR MIN TEMP:  59; 6HR MAX TEMP:  76;

JAMESTOWN      MOSUNNY   76  60  57 N9        30.17S
6HR MIN TEMP:  63; 6HR MAX TEMP:  76;

MINOT AFB      MOSUNNY   74  64  69 NE7       30.18S
GARRISON         N/A     75  64  68 VRB6      30.20S
WILLISTON      PTSUNNY   81  59  47 VRB5      30.18S
6HR MIN TEMP:  56; 6HR MAX TEMP:  82;

DICKINSON      MOSUNNY   76  65  68 E7        30.21S
6HR MIN TEMP:  54; 6HR MAX TEMP:  76;

HETTINGER      SUNNY     78  60  53 CALM      30.23S
6HR MIN TEMP:  55; 6HR MAX TEMP:  79;

$$

 *****  OTHER AIRPORT OBSERVATIONS IN OUR AREA  *****

CITY           SKY/WX    TMP DP  RH WIND       PRES   REMARKS
WALHALLA       FAIR      73  57  56 N12         N/A
GRAFTON AIRPOR FAIR      73  55  53 NW9       30.15S
VALLEY CITY AR FAIR      75  59  57 N7        30.17S
CANDO          FAIR      75  55  50 NE5         N/A
CAVALIER APRT  FAIR      73  55  53 NW6       30.15F
GWINNER        CLEAR     77  57  50 N9        30.17R
SHEYENNE NWR     N/A     78  55  44 N8        29.95
ROLLA            N/A     72  57  60 N7        30.21S
 ***** THE ABOVE OBSERVATIONS ARE NON NWS ARE NOT QUALITY
       CONTROLLED AND MAY MIS-REPORT RAIN FOR SNOW...
$$

  *****  WEATHER ACROSS NORTHERN MINNESOTA  *****

CITY           SKY/WX    TMP DP  RH WIND       PRES   REMARKS
FLAG ISLAND    MOSUNNY   72  48  43 NW17      30.07R
WARROAD        MOSUNNY   73  55  53 N12       30.09S
ROSEAU         SUNNY     73  54  49 N17       30.10S
HALLOCK        SUNNY     73  55  53 NW13      30.13S
THF RVR FALLS  SUNNY     73  52  46 NW16      30.13R
6HR MIN TEMP:  63; 6HR MAX TEMP:  72; 6HR PCP:  0.01;

BAUDETTE       SUNNY     72  57  59 N15G24    30.08R
6HR MIN TEMP:  63; 6HR MAX TEMP:  72;

WASKISH        SUNNY     73  55  53 NW9G18    30.07R
CROOKSTON      SUNNY     73  57  56 N14       30.14R
$$
  *****  WEATHER ACROSS CENTRAL AND WEST MINNESOTA  *****

CITY           SKY/WX    TMP DP  RH WIND       PRES   REMARKS
FOSSTON        SUNNY     72  55  56 NW16G22   30.12S
BEMIDJI        SUNNY     73  52  46 NW16      30.08R
PARK RAPIDS    SUNNY     75  53  46 NW16G26   30.07S
6HR MIN TEMP:  64; 6HR MAX TEMP:  75; 6HR PCP: TRACE;

ELBOW LAKE     FAIR      73  57  58 N20       30.11S
WADENA         SUNNY     73  57  56 NW15G21   30.09R
DETROIT LAKES  SUNNY     73  52  46 N13G26    30.13R
MOORHEAD       SUNNY     75  63  64 N16       30.14S
FERGUS FALLS   MOSUNNY   73  54  49 N12G17    30.11S
MORRIS MN      MOSUNNY   75  59  57 N22       30.09S
STAPLES        SUNNY     75  52  43 N14G23    30.07R
$$
  *****  WEATHER ELSEWHERE ACROSS MINNESOTA  *****

CITY           SKY/WX    TMP DP  RH WIND       PRES   REMARKS
DULUTH         MOSUNNY   76  61  59 N18G25    29.95R
6HR MIN TEMP:  68; 6HR MAX TEMP:  76;

INTRNTL FALLS  PTSUNNY   73  57  57 N12       30.02R
6HR MIN TEMP:  64; 6HR MAX TEMP:  74;

ELY            MOSUNNY   72  57  60 NW10G24   29.99R
CLOQUET        PTSUNNY   73  57  56 NW15G25   29.98R
WHEATON        PTSUNNY   72  55  56 N13G24    30.13S
BRAINERD       SUNNY     76  55  48 NW18G26   30.04R
6HR MIN TEMP:  66; 6HR MAX TEMP:  76;

HIBBING        MOSUNNY   75  59  57 NW21G28   29.99R
6HR MIN TEMP:  67; 6HR MAX TEMP:  76;

ALEXANDRIA     MOSUNNY   74  56  53 N17G23    30.10R
6HR MIN TEMP:  67; 6HR MAX TEMP:  75;

SAINT CLOUD    SUNNY     81  61  50 N15G22    30.02R
6HR MIN TEMP:  71; 6HR MAX TEMP:  81;

MINNEAPOLIS    PTSUNNY   82  64  54 N13       30.00S
6HR MIN TEMP:  74; 6HR MAX TEMP:  82;

$$

  *****  WEATHER ACROSS SOUTH DAKOTA  *****

CITY           SKY/WX    TMP DP  RH WIND       PRES   REMARKS
SIOUX FALLS    PTSUNNY   78  65  63 N10       30.10F
6HR MIN TEMP:  68; 6HR MAX TEMP:  80; 6HR PCP: TRACE;

BROOKINGS      NOT AVBL
WATERTOWN      MOSUNNY   78  55  44 NE17      30.14R
6HR MIN TEMP:  66; 6HR MAX TEMP:  79;

HURON          PTSUNNY   79  60  52 N17G25    30.13R
6HR MIN TEMP:  65; 6HR MAX TEMP:  79;

SISSETON         N/A     78  58  49 N17       30.12R
ABERDEEN       MOSUNNY   77  60  55 NE15      30.15S
6HR MIN TEMP:  63; 6HR MAX TEMP:  77;

MITCHELL       PTSUNNY   79  65  62 NE13G21   30.13R
PIERRE         SUNNY     82  61  48 NE13      30.16R
6HR MIN TEMP:  65; 6HR MAX TEMP:  82;

MOBRIDGE       SUNNY     78  61  55 VRB3      30.17S
RAPID CITY     SUNNY     82  61  48 E6        30.23S
6HR MIN TEMP:  64; 6HR MAX TEMP:  82;

$$

  *****  SOME WEATHER IN NEARBY STATES *****

CITY           SKY/WX    TMP DP  RH WIND       PRES   REMARKS
GLASGOW MT     SUNNY     83  55  38 N10       30.18S
6HR MIN TEMP:  57; 6HR MAX TEMP:  83;

GREAT FALLS MT CLOUDY    71  53  52 S8        30.19S
6HR MIN TEMP:  56; 6HR MAX TEMP:  75;

CHEYENNE WY    SUNNY     80  55  42 VRB6      30.39S
6HR MIN TEMP:  61; 6HR MAX TEMP:  80;

SCOTTSBLUFF NE SUNNY     87  58  37 E14       30.26S
6HR MIN TEMP:  67; 6HR MAX TEMP:  87;

OMAHA NE       PTSUNNY   92  72  51 N16       30.03R HX  99
6HR MIN TEMP:  81; 6HR MAX TEMP:  92;

DES MOINES IA  CLOUDY    90  77  65 S6        29.96R HX 103
6HR MIN TEMP:  79; 6HR MAX TEMP:  91; 6HR PCP: TRACE;

DAVENPORT IA   MOSUNNY   85  75  72 W10       29.96F HX  93
6HR MIN TEMP:  74; 6HR MAX TEMP:  85;

CHICAGO IL     PTSUNNY   86  68  54 SW14G21   29.98F
6HR MIN TEMP:  73; 6HR MAX TEMP:  87;

EAU CLAIRE WI  PTSUNNY   82  66  58 N9        29.94S
6HR MIN TEMP:  79; 6HR MAX TEMP:  85;

LA CROSSE WI   SUNNY     90  70  51 NW16      29.91R HX  95
6HR MIN TEMP:  78; 6HR MAX TEMP:  91;

$$

  *****  SOME NATIONAL WEATHER *****

CITY           SKY/WX    TMP DP  RH WIND       PRES   REMARKS
LA GUARDIA NY  PTSUNNY   85  65  51 S12G17    30.11S
6HR MIN TEMP:  76; 6HR MAX TEMP:  86;

RALEIGH NC     LGT RAIN  79  74  84 S6        30.14F
6HR MIN TEMP:  73; 6HR MAX TEMP:  81; 6HR PCP: TRACE;

ATLANTA GA     PTSUNNY   79  69  71 NE3       30.13F
6HR MIN TEMP:  73; 6HR MAX TEMP:  79; 6HR PCP: TRACE;

NEW ORLEANS LA PTSUNNY   89  74  60 NE9       30.03S THUNDER HX  98
6HR MIN TEMP:  77; 6HR MAX TEMP:  89; 6HR PCP: TRACE;

OKLAHOMA CITY  PTSUNNY   90  73  57 VRB3      30.10F HX  98
6HR MIN TEMP:  74; 6HR MAX TEMP:  90;

ALBUQUERQUE NM PTSUNNY   89  49  25 W6        30.29S
6HR MIN TEMP:  77; 6HR MAX TEMP:  91;

SALT LAKE CITY PTSUNNY   89  33  13 VRB6      30.21F
6HR MIN TEMP:  64; 6HR MAX TEMP:  89;

LOS ANGELES CA MOSUNNY   75  63  66 W12       30.06S
6HR MIN TEMP:  66; 6HR MAX TEMP:  77;

BOISE ID       SUNNY     84  49  29 SE8       30.15S



USA.gov is the U.S. government's official web portal to all federal, state and local government web resources and services.